Regional Weather Roundup
Issued by NWS

Home | Current Version | Previous Version | Text Only | Print | Product List | Glossary On
Versions: 1 2 3 4 5 6 7 8 9 10 11 12 13 14 15 16 17 18 19 20 21 22 23 24 25 26 27 28 29 30 31 32 33 34 35 36 37 38 39 40 41 42 43 44 45 46 47 48 49 50
773
ASUS43 KLSX 192057
RWRMO

WEATHER SUMMARY FOR MISSOURI
NATIONAL WEATHER SERVICE SPRINGFIELD MO
300 PM CST MON FEB 19 2018

NOTE: "FAIR" INDICATES FEW OR NO CLOUDS BELOW 12,000 FEET WITH NO
       SIGNIFICANT WEATHER AND/OR OBSTRUCTIONS TO VISIBILITY.
       CURRENT SKY AND/OR WEATHER CONDITIONS ARE NOT AVAILABLE FOR
       CHILLICOTHE AND FARMINGTON.

MOZ001>031-035>038-043-044-053-054-192200-
...NORTHERN AND WESTERN MISSOURI...

CITY           SKY/WX    TMP DP  RH WIND       PRES   REMARKS
KANSAS CTY INT FRZ DRZL  32  30  92 NW9       29.78R FOG     WCI  24
KANSAS C DTWN  CLOUDY    36  32  85 NW9       29.78R WCI  29
LEE`S SUMMIT   CLOUDY    40  36  86 NW9       29.76R
ST JOSEPH      CLOUDY    31  31 100 NW12      29.80R WCI  22
CHILLICOTHE      N/A     42  37  82 NW8       29.75R

$$
MOZ066>068-077>081-088>096-101>105-192200-
...SOUTHWEST MISSOURI...

CITY           SKY/WX    TMP DP  RH WIND       PRES   REMARKS
SPRINGFIELD    LGT RAIN  65  60  84 S21G29    29.79F
JOPLIN         CLOUDY    66  64  93 S22G31    29.75R
BRANSON        CLOUDY    68  57  68 S16G29    29.86S

$$
MOZ032>034-039>042-045>050-055>058-069>072-192200-
...CENTRAL MISSOURI...

CITY           SKY/WX    TMP DP  RH WIND       PRES   REMARKS
COLUMBIA       NOT AVBL
JEFFERSON CITY CLOUDY    64  59  83 SE14      29.77F
ROLLA          CLOUDY    63  59  87 S21G30    29.83S
SEDALIA        LGT RAIN  63  62  97 S13       29.75R FOG
WARRENSBURG    RAIN      52  50  93 NW7       29.73R

$$
MOZ051-052-059>065-192200-
...EAST CENTRAL MISSOURI...

CITY           SKY/WX    TMP DP  RH WIND       PRES   REMARKS
ST LOUIS INTL  CLOUDY    62  60  93 SE8       29.86F

$$
MOZ072>076-082>087-097>100-106>115-192200-
...SOUTH CENTRAL AND SOUTHEAST MISSOURI...

CITY           SKY/WX    TMP DP  RH WIND       PRES   REMARKS
CAPE GIRARDEAU PTSUNNY   70  59  68 S23G38    29.96S
POPLAR BLUFF   FAIR      70  60  70 S17G30    29.95R
WEST PLAINS    CLOUDY    67  56  67 S15G26    29.91S

$$



USA.gov is the U.S. government's official web portal to all federal, state and local government web resources and services.